Location: Unspecified
(60.9430°N, 0.0000°E)
Time: 13:51:04
(UTC+00:00)

CZ-6A DEB - Visible Passes

Search period start: 04 April 2026 00:00
Search period end: 14 April 2026 00:00
Orbit: 744 x 811 km, 89.0° (Epoch: 28 March)

Date Brightness Start Highest point End Pass type
(mag) Time Alt. Az. Time Alt. Az. Time Alt. Az.
4 Apr ? 03:24:32 10° ENE 03:26:02 11° NE 03:27:31 10° NE visible
5 Apr ? 19:48:07 10° NNW 19:50:41 14° WNW 19:53:16 10° W visible
6 Apr ? 03:55:13 10° ESE 03:58:48 19° ENE 04:02:21 10° NNE visible
7 Apr ? 03:23:23 10° E 03:25:45 13° ENE 03:28:06 10° NNE visible
8 Apr ? 19:48:35 10° NW 19:50:23 12° WNW 19:52:11 10° WNW visible
9 Apr ? 03:54:37 10° ESE 03:58:33 23° ENE 04:02:28 10° NNE visible
10 Apr ? 03:22:29 10° E 03:25:26 16° ENE 03:28:23 10° NNE visible
11 Apr ? 02:51:24 10° ENE 02:52:25 11° NE 02:53:27 10° NE visible
12 Apr ? 03:54:04 10° SE 03:58:17 27° ENE 04:02:29 10° NNE visible
13 Apr ? 03:21:41 10° ESE 03:25:06 19° ENE 03:28:31 10° NNE visible
